sat.trackr.live / text

‹ back to catalog

STARLINK-34660

NORAD 64800 · 2025-150L

PAYLOAD ACTIVE UNKNOWN

§ Identity

Operator
Country
US
Launch date
2025-07-16
Launch site
AFWTR
Launch vehicle
Mass (kg)
RCS (m²)

Purposes: comms

External: N2YO · Heavens-Above · Gunter

§ Orbital elements

Epoch: 2026-09-20T14:19:37.909056Z

Period
96.11 min
Inclination
70.0023°
Eccentricity
0.0003691
Mean motion
14.98335222 rev/d
Perigee alt
569.5 km
Apogee alt
574.6 km
Semi-major
6,950.2 km
B*
1.4372e-4
RAAN
2.9625°
Arg perigee
268.9007°
Mean anomaly
91.1729°
Rev number
6,571

§ Raw data

STARLINK-346601 64800U 25150L   26263.59696654  .00001622  00000+0  14372-3 0  99902 64800  70.0023   2.9625 0003691 268.9007  91.1729 14.98335222 65714

JSON: /api/v1/satellites/64800 · /tle

For live sub-satellite position, see the globe view (requires WebGL).

§ Visibility from observer

Set your observer location to see the next 7 days of passes ≥ 10°. The values pass through the URL so the page stays shareable.

No JS? Fill the form by hand. The geolocation button needs JavaScript.